Showing default

KINEIS-5E, 62083

Orbit data source: Space-Track

KINEIS-5E, 62083 is a French payload satellite in SSO that was launched on Mon, 25 Nov 2024 UTC via an ELECTRON launch vehicle from the Rocket Lab Launch Complex (RLLC). Payload-class satellites include a variety of spacecraft equipped with specific instruments for various scientific and technological missions. These include communications satellites like Starlink; space stations such as the ISS; scientific satellites like the Hubble; Earth observation satellites from companies like Planet Labs, Umbra, and HawkEye 360; GPS; miniature CubeSats for education and research; and military/defense satellites.

Loading next visibility...
Identifier
62083, 2024-219C
Orbit
SSO
Last TLE update
11 hours ago
Origin
Manufacturer
KINEIS
Mission
Operational Commercial Communications
Bus & Motor
CUBESAT 16U, Unknown motor
Mass
28 kg wet, 28 kg dry
Launch date (UTC)
2024-11-25 (7 months ago)
Launch vehicle
ELECTRON
Launch site
Rocket Lab Launch Complex (RLLC)
Object type
Payload
Rocket body
Debris
Shape & HBR
Box + 2 Pan + 1 Ant, 1.6 m
Radar Cross Section
0.229 m², Medium (>0.1 m² and < 1m²)

Expand to show TLE details & history

TLE from 11 hours ago
0 KINEIS-5E
1 62083U 24219C   25167.13718526  .00000628  00000-0  10685-3 0  9990
2 62083  97.9707 328.6036 0001991  92.0502 268.0933 14.72393443 29907
Epoch: 2025-06-16T03:17Z
TLE epoch observation values (Epoch: 2025-06-16T03:17:32.806Z)
Latitude
-0.00008°
Longitude
14.56467°
Altitude
656.494 km
Speed
7.529 km/s
True Right ascension
21h 54m 24s
True Declination
0° 00' 00"
Sunlit
Object was in daylight at epoch
Visualization orbit readout
Latitude
11.79148°
Longitude
-163.33854°
Altitude
655.376 km
Speed
7.531 km/s
Apparent Right ascension
11h 03m 38s
Apparent Declination
-13° 16' 32"
Sunlit
Object is in daylight
Visualization observer readout
Local Sidereal Time
00:30:12
Azimuth
41.593° NE
Elevation
-57.269°
Doppler factor
1
Orbital elements
Apogee altitude
651.891 km
Perigee altitude
649.092 km
Semi-major axis
7,028.629 km
Eccentricity
0.0002
Inclination
97.9707°
RAAN
328.6036°
Arg. of periapsis
92.0502°
True anomaly
Unknown
Mean anomaly
268.0933°
Eccentric anomaly
Unknown
Mean motion
3.6833 °/min
Orbital period
97.74 mins
BSTAR
0.00010685
Loading maneuver chart data...
Loading SW <> Apogee altitude chart data...
Loading historical data...
Loading historical data...
Loading historical data...
Loading historical data...
Loading historical data...
Loading historical data...
Loading historical data...

KINEIS-5E Visibility forecast

Observer location: undefined°, undefined°

Span
Click to sort rows by Start time (UTC) header in descending order
Start Az.
Max El. time (UTC)
Max El. Az.
Max El.
End time (UTC)
End Az.
7 mins2025-06-16 23:26:20.151Z21.101° NNE2025-06-16 23:30:20.151Z133.687° SE41.06°2025-06-16 23:33:20.151Z180.8° SSW
7 mins2025-06-17 10:25:20.151Z141.869° SSE2025-06-17 10:28:20.151Z60.796° ENE38.115°2025-06-17 10:32:20.151Z357.874° N
|